Location: Bouchavesnes-Bergen
(49.9859°N, 2.9203°E)
Time: 15:13:05
(UTC+00:00)

NOAA 16 DEB - Visible Passes

Search period start: 25 September 2021 00:00
Search period end: 05 October 2021 00:00
Orbit: 796 x 843 km, 98.8° (Epoch: 24 September)

Date Brightness Start Highest point End Pass type
(mag) Time Alt. Az. Time Alt. Az. Time Alt. Az.
25 Sep ? 21:54:03 21° NNE 21:54:03 21° NNE 21:56:05 10° N visible
25 Sep ? 23:35:25 15° NNW 23:35:25 15° NNW 23:36:23 10° NNW visible
26 Sep ? 21:33:05 18° NNE 21:33:05 18° NNE 21:34:56 10° N visible
26 Sep ? 23:14:27 17° NNW 23:14:27 17° NNW 23:15:42 10° NNW visible
27 Sep ? 21:12:07 15° NNE 21:12:07 15° NNE 21:13:37 10° NNE visible
27 Sep ? 22:53:28 19° NNW 22:53:28 19° NNW 22:54:54 10° NNW visible
28 Sep ? 20:51:08 12° NNE 20:51:08 12° NNE 20:51:59 10° NNE visible
28 Sep ? 22:32:30 20° N 22:32:30 20° N 22:34:00 10° N visible
29 Sep ? 22:11:31 19° N 22:11:31 19° N 22:13:02 10° N visible
29 Sep ? 23:52:52 10° NNW 23:52:52 10° NNW 23:52:57 10° NNW visible
30 Sep ? 21:50:32 17° N 21:50:32 17° N 21:51:58 10° N visible
30 Sep ? 23:31:53 12° NNW 23:31:53 12° NNW 23:32:21 10° NNW visible
01 Oct ? 21:29:33 15° NNE 21:29:33 15° NNE 21:30:47 10° N visible
01 Oct ? 23:10:54 14° NNW 23:10:54 14° NNW 23:11:38 10° NNW visible
02 Oct ? 21:08:33 13° NNE 21:08:33 13° NNE 21:09:25 10° NNE visible
02 Oct ? 22:49:55 15° NNW 22:49:55 15° NNW 22:50:49 10° NNW visible
03 Oct ? 20:47:34 10° NNE 20:47:34 10° NNE 20:47:37 10° NNE visible
03 Oct ? 22:28:55 16° N 22:28:55 16° N 22:29:54 10° N visible
04 Oct ? 22:07:55 15° N 22:07:55 15° N 22:08:53 10° N visible
